User: anonymous
Location: Unspecified
(0.0000°N, 0.0000°E)
Time: 01:36:08
(UTC+02:00)
Language:

ATLAS 2AS CENTAUR R/B - Orbit

View from above orbital plane
View from above orbital plane
View from above satellite
View from above satellite

Ground track
Ground track

The orbit data is extracted from the following two-line orbital elements,

1 28096U 03054B   14230.88553612 0.00000000  00000-0  00000-0 0    08
2 28096  63.6690 149.3921 0250000 294.2634  65.7366 13.40746688    03
Epoch (UTC): 18 August 2014 21:15:10
Eccentricity: 0.0250000
inclination: 63.6690°
perigee height: 919 km
apogee height: 1293 km
right ascension of ascending node: 149.3921°
argument of perigee: 294.2634°
revolutions per day: 13.40746688
mean anomaly at epoch: 65.7366°
orbit number at epoch: 0

The dashed part of the orbit path shows where the satellite is in the earth's shadow,  

DLR